Date String (YYYY-MM-DD hh:mm:ss) UTC,Instrument flags,absolute air pressure of the measurement (hPa),sample flow rate (lpm),inlet stack bypass flow (lpm),air temperature of the measurement (°C),ambient temperature measured by the external sensor (°C),aerosol sample conditioner tube jacket temperature (°C),OPC LED temperature (°C),internal box temperature (°C),relative humidity of the measurement (%),span deviation,mass concentration of particles derived from Lorenz-Mie calculation of OPC scattering (μg/m³),mass concentration of particles derived from Lorenz-Mie calculation of OPC scattering (μg/m³),mass concentration of particles derived from Lorenz-Mie calculation of OPC scattering (μg/m³)
DateTimeUTC,F1_M11,P_M11,Q1_M11,Q2_M11,T1_M11,T2_M11,T3_M11,T4_M11,T5_M11,U1_M11,ZSPAN_M11,X2_M11,X0_M11,X1_M11
2024-02-14 01:00:00,SystemResetWarning,0825.4,5.01,000.00,024.5,023.9,000.0,033.0,026.4,12.7,0000.0,0005.93,0012.52,0005.34
2024-02-14 01:01:00,SystemResetWarning,0825.4,5.00,000.00,024.5,023.9,000.0,033.0,026.4,12.7,0000.0,0005.93,0011.56,0005.35
2024-02-14 01:02:00,SystemResetWarning,0825.4,5.00,000.00,024.5,023.9,000.0,033.0,026.4,12.8,0000.0,0005.96,0011.55,0005.36
2024-02-14 01:03:00,SystemResetWarning,0825.4,4.99,000.00,024.5,023.9,000.0,033.0,026.5,12.9,0000.0,0005.97,0011.57,0005.37
2024-02-14 01:04:00,SystemResetWarning,0825.4,5.00,000.00,024.5,023.9,000.0,033.0,026.4,12.9,0000.0,0005.97,0011.87,0005.37
2024-02-14 01:05:00,SystemResetWarning,0825.4,5.00,000.00,024.5,023.9,000.0,033.0,026.4,12.8,0000.0,0006.00,0011.41,0005.38
2024-02-14 01:06:00,SystemResetWarning,0825.4,5.01,000.00,024.5,023.9,000.0,033.0,026.4,12.8,0000.0,0005.99,0011.13,0005.39
2024-02-14 01:07:00,SystemResetWarning,0825.3,5.00,000.00,024.5,023.9,000.0,033.0,026.4,12.7,0000.0,0005.96,0010.71,0005.39
2024-02-14 01:08:00,SystemResetWarning,0825.4,5.00,000.00,024.5,023.9,000.0,033.0,026.4,12.7,0000.0,0005.97,0010.33,0005.39
2024-02-14 01:09:00,SystemResetWarning,0825.4,4.99,000.00,024.5,023.9,000.0,033.0,026.4,12.8,0000.0,0006.00,0010.46,0005.40
2024-02-14 01:10:00,SystemResetWarning,0825.3,4.99,000.00,024.5,023.9,000.0,033.0,026.4,12.7,0000.0,0006.03,0010.66,0005.43
2024-02-14 01:11:00,SystemResetWarning,0825.3,4.99,000.00,024.5,023.9,000.0,033.0,026.4,12.5,0000.0,0006.06,0010.67,0005.45
2024-02-14 01:12:00,SystemResetWarning,0825.3,5.00,000.00,024.5,023.9,000.0,033.0,026.4,12.5,0000.0,0006.05,0010.93,0005.46
2024-02-14 01:13:00,SystemResetWarning,0825.3,4.99,000.00,024.5,023.9,000.0,033.0,026.4,12.6,0000.0,0006.07,0011.07,0005.48
2024-02-14 01:14:00,SystemResetWarning,0825.3,5.00,000.00,024.5,023.9,000.0,033.0,026.4,12.4,0000.0,0006.10,0011.40,0005.50
2024-02-14 01:15:00,SystemResetWarning,0825.3,5.00,000.00,024.5,023.9,000.0,033.0,026.4,12.5,0000.0,0006.17,0012.35,0005.52
2024-02-14 01:16:00,SystemResetWarning,0825.3,5.01,000.00,024.5,023.8,000.0,033.0,026.4,12.5,0000.0,0006.21,0012.89,0005.55
2024-02-14 01:17:00,SystemResetWarning,0825.3,5.00,000.00,024.5,023.8,000.0,033.0,026.4,12.4,0000.0,0006.24,0013.11,0005.57
2024-02-14 01:18:00,SystemResetWarning,0825.4,5.01,000.00,024.5,023.8,000.0,033.0,026.4,12.5,0000.0,0006.26,0014.24,0005.59
2024-02-14 01:19:00,SystemResetWarning,0825.3,5.00,000.00,024.5,023.8,000.0,033.0,026.4,12.6,0000.0,0006.28,0016.72,0005.59
2024-02-14 01:20:00,SystemResetWarning,0825.3,5.00,000.00,024.5,023.8,000.0,033.0,026.3,12.6,0000.0,0006.33,0017.64,0005.59
2024-02-14 01:21:00,SystemResetWarning,0825.4,5.00,000.00,024.5,023.8,000.0,033.0,026.3,12.7,0000.0,0006.41,0018.92,0005.59
2024-02-14 01:22:00,SystemResetWarning,0825.4,5.00,000.00,024.5,023.8,000.0,033.0,026.4,12.5,0000.0,0006.48,0019.79,0005.59
2024-02-14 01:23:00,SystemResetWarning,0825.4,5.00,000.00,024.5,023.8,000.0,033.0,026.3,12.5,0000.0,0006.55,0020.09,0005.62
2024-02-14 01:24:00,SystemResetWarning,0825.4,5.00,000.00,024.5,023.8,000.0,033.0,026.4,12.4,0000.0,0006.63,0021.28,0005.62
2024-02-14 01:25:00,SystemResetWarning,0825.4,5.00,000.00,024.5,023.8,000.0,033.0,026.3,12.3,0000.0,0006.67,0022.25,0005.62
2024-02-14 01:26:00,SystemResetWarning,0825.4,5.00,000.00,024.5,023.7,000.0,033.0,026.4,12.3,0000.0,0006.62,0020.82,0005.62
2024-02-14 01:27:00,SystemResetWarning,0825.4,5.00,000.00,024.4,023.7,000.0,033.0,026.4,12.2,0000.0,0006.61,0020.11,0005.62
2024-02-14 01:28:00,SystemResetWarning,0825.4,5.00,000.00,024.4,023.8,000.0,033.0,026.3,12.2,0000.0,0006.61,0020.77,0005.60
2024-02-14 01:29:00,SystemResetWarning,0825.4,5.00,000.00,024.4,023.8,000.0,033.0,026.3,12.2,0000.0,0006.64,0020.37,0005.60
2024-02-14 01:30:00,SystemResetWarning,0825.4,5.01,000.00,024.4,023.8,000.0,033.0,026.3,12.2,0000.0,0006.66,0018.75,0005.62
2024-02-14 01:31:00,SystemResetWarning,0825.4,5.00,000.00,024.4,023.7,000.0,033.0,026.3,12.2,0000.0,0006.64,0018.93,0005.62
2024-02-14 01:32:00,SystemResetWarning,0825.4,4.99,000.00,024.4,023.8,000.0,033.0,026.3,12.3,0000.0,0006.60,0017.99,0005.63
2024-02-14 01:33:00,SystemResetWarning,0825.4,4.99,000.00,024.4,023.7,000.0,033.0,026.3,12.3,0000.0,0006.58,0018.61,0005.62
2024-02-14 01:34:00,SystemResetWarning,0825.5,5.01,000.00,024.4,023.7,000.0,033.0,026.3,12.3,0000.0,0006.55,0020.18,0005.60
2024-02-14 01:35:00,SystemResetWarning,0825.5,5.00,000.00,024.4,023.7,000.0,033.0,026.3,12.3,0000.0,0006.51,0020.78,0005.59
2024-02-14 01:36:00,SystemResetWarning,0825.5,5.01,000.00,024.4,023.7,000.0,033.0,026.3,12.3,0000.0,0006.49,0022.12,0005.59
2024-02-14 01:37:00,SystemResetWarning,0825.4,5.00,000.00,024.4,023.7,000.0,033.0,026.3,12.3,0000.0,0006.54,0023.11,0005.58
2024-02-14 01:38:00,SystemResetWarning,0825.4,5.00,000.00,024.4,023.7,000.0,032.9,026.3,12.3,0000.0,0006.63,0024.41,0005.59
2024-02-14 01:39:00,SystemResetWarning,0825.4,4.99,000.00,024.4,023.7,000.0,032.9,026.3,12.2,0000.0,0006.70,0025.03,0005.59
2024-02-14 01:40:00,SystemResetWarning,0825.4,4.99,000.00,024.4,023.7,000.0,032.9,026.3,12.2,0000.0,0006.77,0025.61,0005.60
2024-02-14 01:41:00,SystemResetWarning,0825.4,5.00,000.00,024.4,023.7,000.0,032.9,026.3,12.1,0000.0,0006.82,0027.25,0005.60
2024-02-14 01:42:00,SystemResetWarning,0825.4,5.01,000.00,024.4,023.7,000.0,032.9,026.3,12.1,0000.0,0007.00,0028.98,0005.61
2024-02-14 01:43:00,SystemResetWarning,0825.4,5.00,000.00,024.4,023.7,000.0,032.9,026.3,12.1,0000.0,0007.11,0030.02,0005.62
2024-02-14 01:44:00,SystemResetWarning,0825.4,5.01,000.00,024.4,023.7,000.0,032.9,026.3,12.1,0000.0,0007.21,0030.05,0005.64
2024-02-14 01:45:00,SystemResetWarning,0825.4,5.00,000.00,024.4,023.7,000.0,032.9,026.3,12.1,0000.0,0007.27,0031.61,0005.65
2024-02-14 01:46:00,SystemResetWarning,0825.4,5.00,000.00,024.4,023.7,000.0,032.9,026.3,12.0,0000.0,0007.39,0033.39,0005.65
2024-02-14 01:47:00,SystemResetWarning,0825.4,4.99,000.00,024.3,023.6,000.0,032.9,026.3,12.0,0000.0,0007.52,0035.03,0005.67
2024-02-14 01:48:00,SystemResetWarning,0825.3,4.99,000.00,024.3,023.6,000.0,032.9,026.3,11.9,0000.0,0007.53,0037.28,0005.66
2024-02-14 01:49:00,SystemResetWarning,0825.4,5.01,000.00,024.3,023.6,000.0,032.9,026.3,11.8,0000.0,0007.51,0037.77,0005.65
2024-02-14 01:50:00,SystemResetWarning,0825.4,5.01,000.00,024.3,023.6,000.0,032.9,026.2,11.8,0000.0,0007.48,0038.31,0005.65
2024-02-14 01:51:00,SystemResetWarning,0825.4,5.00,000.00,024.3,023.6,000.0,032.9,026.2,11.8,0000.0,0007.45,0038.78,0005.64
2024-02-14 01:52:00,SystemResetWarning,0825.4,4.99,000.00,024.3,023.6,000.0,032.9,026.2,11.8,0000.0,0007.42,0037.21,0005.64
2024-02-14 01:53:00,SystemResetWarning,0825.4,4.99,000.00,024.3,023.6,000.0,032.9,026.3,11.7,0000.0,0007.30,0034.89,0005.63
2024-02-14 01:54:00,SystemResetWarning,0825.4,5.02,000.00,024.3,023.6,000.0,032.9,026.3,11.7,0000.0,0007.10,0033.18,0005.61
2024-02-14 01:55:00,SystemResetWarning,0825.5,5.01,000.00,024.3,023.6,000.0,032.9,026.2,11.7,0000.0,0006.96,0032.21,0005.57
2024-02-14 01:56:00,SystemResetWarning,0825.5,4.99,000.00,024.3,023.6,000.0,032.9,026.2,11.7,0000.0,0006.86,0030.47,0005.55
2024-02-14 01:57:00,SystemResetWarning,0825.5,4.99,000.00,024.3,023.6,000.0,032.9,026.2,11.7,0000.0,0006.73,0027.11,0005.54
2024-02-14 01:58:00,SystemResetWarning,0825.5,5.00,000.00,024.3,023.6,000.0,032.9,026.2,11.7,0000.0,0006.57,0022.52,0005.52
2024-02-14 01:59:00,SystemResetWarning,0825.5,5.01,000.00,024.3,023.6,000.0,032.9,026.2,11.7,0000.0,0006.43,0019.34,0005.51
